| time (UTC) | temp C | wind direction | speed KPH | gust KPH | rain 1hr cm | rain 24hr cm | rain mn cm | humidity % | barometer mb |
| 20260508215004 | 18 | 158 | 3.2 | 11.3 | 0.00 | 0.00 | 0.00 | 38 | 1006.6 |
| 20260508214507 | 17 | 187 | 1.6 | 4.8 | 0.00 | 0.00 | 0.00 | 39 | 1006.7 |
| 20260508214007 | 18 | 165 | 0.0 | 4.8 | 0.00 | 0.00 | 0.00 | 36 | 1006.8 |
| 20260508213507 | 18 | 165 | 1.6 | 4.8 | 0.00 | 0.00 | 0.00 | 35 | 1006.7 |
| 20260508213016 | 18 | 140 | 1.6 | 11.3 | 0.00 | 0.00 | 0.00 | 35 | 1006.9 |
| 20260508212505 | 18 | 190 | 3.2 | 11.3 | 0.00 | 0.00 | 0.00 | 34 | 1006.8 |
| 20260508212007 | 18 | 130 | 3.2 | 8.0 | 0.00 | 0.00 | 0.00 | 36 | 1006.9 |
| 20260508211519 | 18 | 18 | 1.6 | 4.8 | 0.00 | 0.00 | 0.00 | 36 | 1006.8 |
| 20260508211008 | 18 | 317 | 1.6 | 9.7 | 0.00 | 0.00 | 0.00 | 39 | 1006.9 |
| 20260508210515 | 18 | 303 | 3.2 | 11.3 | 0.00 | 0.00 | 0.00 | 38 | 1007.0 |
| 20260508210004 | 18 | 36 | 3.2 | 11.3 | 0.00 | 0.00 | 0.00 | 35 | 1007.0 |
| 20260508205501 | 17 | 146 | 1.6 | 3.2 | 0.00 | 0.00 | 0.00 | 41 | 1007.1 |
| 20260508205002 | 17 | 26 | 0.0 | 9.7 | 0.00 | 0.00 | 0.00 | 39 | 1007.2 |
| 20260508204515 | 17 | 132 | 0.0 | 9.7 | 0.00 | 0.00 | 0.00 | 37 | 1007.3 |
| 20260508204002 | 17 | 157 | 3.2 | 8.0 | 0.00 | 0.00 | 0.00 | 39 | 1007.3 |
| 20260508203505 | 18 | 111 | 1.6 | 4.8 | 0.00 | 0.00 | 0.00 | 36 | 1007.3 |
| 20260508203013 | 18 | 110 | 1.6 | 4.8 | 0.00 | 0.00 | 0.00 | 34 | 1007.3 |
| 20260508202507 | 18 | 36 | 0.0 | 11.3 | 0.00 | 0.00 | 0.00 | 34 | 1007.4 |
| 20260508202008 | 18 | 336 | 1.6 | 11.3 | 0.00 | 0.00 | 0.00 | 34 | 1007.6 |
| 20260508201517 | 18 | 269 | 1.6 | 6.4 | 0.00 | 0.00 | 0.00 | 32 | 1007.8 |
| 20260508201014 | 18 | 314 | 1.6 | 6.4 | 0.00 | 0.00 | 0.00 | 32 | 1007.8 |
| 20260508200507 | 18 | 300 | 1.6 | 6.4 | 0.00 | 0.00 | 0.00 | 35 | 1007.8 |
| 20260508200022 | 17 | 210 | 1.6 | 6.4 | 0.00 | 0.00 | 0.00 | 36 | 1008.0 |
| 20260508195511 | 17 | 186 | 1.6 | 9.7 | 0.00 | 0.00 | 0.00 | 36 | 1008.0 |
| 20260508195002 | 18 | 182 | 3.2 | 9.7 | 0.00 | 0.00 | 0.00 | 37 | 1008.1 |
| 20260508194505 | 18 | 125 | 3.2 | 8.0 | 0.00 | 0.00 | 0.00 | 35 | 1008.1 |
| 20260508194002 | 18 | 205 | 1.6 | 6.4 | 0.00 | 0.00 | 0.00 | 34 | 1008.2 |
| 20260508193505 | 17 | 321 | 1.6 | 6.4 | 0.00 | 0.00 | 0.00 | 35 | 1008.2 |
| 20260508193010 | 17 | 163 | 4.8 | 6.4 | 0.00 | 0.00 | 0.00 | 36 | 1008.3 |
| 20260508192503 | 17 | 198 | 1.6 | 9.7 | 0.00 | 0.00 | 0.00 | 37 | 1008.5 |
| 20260508192008 | 17 | 153 | 3.2 | 14.5 | 0.00 | 0.00 | 0.00 | 37 | 1008.6 |
| 20260508191521 | 17 | 148 | 4.8 | 14.5 | 0.00 | 0.00 | 0.00 | 37 | 1008.6 |
| 20260508191008 | 17 | 154 | 1.6 | 11.3 | 0.00 | 0.00 | 0.00 | 38 | 1008.8 |
| 20260508190509 | 17 | 44 | 1.6 | 12.9 | 0.00 | 0.00 | 0.00 | 37 | 1008.7 |
| 20260508190032 | 17 | 171 | 4.8 | 12.9 | 0.00 | 0.00 | 0.00 | 35 | 1008.8 |
| 20260508185510 | 16 | 117 | 0.0 | 12.9 | 0.00 | 0.00 | 0.00 | 37 | 1008.8 |
| 20260508185009 | 17 | 320 | 1.6 | 12.9 | 0.00 | 0.00 | 0.00 | 35 | 1009.0 |
| 20260508184504 | 17 | 155 | 3.2 | 6.4 | 0.00 | 0.00 | 0.00 | 32 | 1009.0 |
| 20260508184004 | 17 | 309 | 1.6 | 9.7 | 0.00 | 0.00 | 0.00 | 33 | 1009.0 |
| 20260508183503 | 17 | 206 | 1.6 | 9.7 | 0.00 | 0.00 | 0.00 | 34 | 1009.0 |
| 20260508183006 | 17 | 11 | 3.2 | 8.0 | 0.00 | 0.00 | 0.00 | 32 | 1009.0 |
| 20260508182506 | 17 | 5 | 1.6 | 8.0 | 0.00 | 0.00 | 0.00 | 32 | 1008.9 |
| 20260508182009 | 17 | 230 | 3.2 | 12.9 | 0.00 | 0.00 | 0.00 | 31 | 1009.0 |
| 20260508181520 | 17 | 239 | 3.2 | 12.9 | 0.00 | 0.00 | 0.00 | 31 | 1009.0 |
| 20260508181006 | 17 | 5 | 1.6 | 8.0 | 0.00 | 0.00 | 0.00 | 32 | 1009.2 |
| 20260508180507 | 17 | 140 | 3.2 | 8.0 | 0.00 | 0.00 | 0.00 | 34 | 1009.3 |
| 20260508180026 | 17 | 253 | 3.2 | 4.8 | 0.00 | 0.00 | 0.00 | 31 | 1009.4 |
| 20260508175508 | 17 | 198 | 1.6 | 6.4 | 0.00 | 0.00 | 0.00 | 37 | 1009.4 |
| 20260508175013 | 17 | 276 | 1.6 | 9.7 | 0.00 | 0.00 | 0.00 | 33 | 1009.5 |
| 20260508174534 | 17 | 22 | 3.2 | 9.7 | 0.00 | 0.00 | 0.00 | 31 | 1009.8 |
| 20260508174011 | 17 | 142 | 1.6 | 8.0 | 0.00 | 0.00 | 0.00 | 34 | 1009.9 |
| 20260508173502 | 16 | 105 | 1.6 | 4.8 | 0.00 | 0.00 | 0.00 | 33 | 1010.0 |
| 20260508173008 | 16 | 250 | 1.6 | 6.4 | 0.00 | 0.00 | 0.00 | 33 | 1010.1 |
| 20260508172505 | 16 | 214 | 1.6 | 6.4 | 0.00 | 0.00 | 0.00 | 36 | 1010.3 |
| 20260508172006 | 16 | 338 | 1.6 | 6.4 | 0.00 | 0.00 | 0.00 | 33 | 1010.3 |
| 20260508171516 | 16 | 255 | 1.6 | 9.7 | 0.00 | 0.00 | 0.00 | 34 | 1010.5 |
| 20260508171009 | 16 | 346 | 3.2 | 11.3 | 0.00 | 0.00 | 0.00 | 34 | 1010.5 |
| 20260508170505 | 16 | 347 | 3.2 | 11.3 | 0.00 | 0.00 | 0.00 | 35 | 1010.5 |
| 20260508170029 | 15 | 283 | 1.6 | 4.8 | 0.00 | 0.00 | 0.00 | 35 | 1010.6 |
| 20260508165508 | 15 | 342 | 1.6 | 8.0 | 0.00 | 0.00 | 0.00 | 37 | 1010.7 |
| 20260508165008 | 15 | 155 | 3.2 | 8.0 | 0.00 | 0.00 | 0.00 | 38 | 1010.8 |
| 20260508164533 | 15 | 157 | 1.6 | 8.0 | 0.00 | 0.00 | 0.00 | 37 | 1010.9 |
| 20260508164007 | 15 | 16 | 3.2 | 8.0 | 0.00 | 0.00 | 0.00 | 38 | 1011.0 |
| 20260508163508 | 15 | 331 | 1.6 | 8.0 | 0.00 | 0.00 | 0.00 | 40 | 1011.0 |
| 20260508163029 | 15 | 13 | 1.6 | 8.0 | 0.00 | 0.00 | 0.00 | 40 | 1011.1 |
| 20260508162504 | 15 | 132 | 1.6 | 6.4 | 0.00 | 0.00 | 0.00 | 41 | 1011.3 |
| 20260508162004 | 15 | 82 | 3.2 | 4.8 | 0.00 | 0.00 | 0.00 | 39 | 1011.3 |
| 20260508161508 | 15 | 169 | 1.6 | 8.0 | 0.00 | 0.00 | 0.00 | 41 | 1011.4 |
| 20260508161006 | 14 | 144 | 3.2 | 8.0 | 0.00 | 0.00 | 0.00 | 42 | 1011.3 |
| 20260508160510 | 14 | 144 | 1.6 | 6.4 | 0.00 | 0.00 | 0.00 | 45 | 1011.4 |
| 20260508160011 | 14 | 102 | 3.2 | 6.4 | 0.00 | 0.00 | 0.00 | 43 | 1011.4 |
| 20260508155508 | 14 | 344 | 0.0 | 6.4 | 0.00 | 0.00 | 0.00 | 44 | 1011.4 |
| 20260508155009 | 13 | 215 | 1.6 | 6.4 | 0.00 | 0.00 | 0.00 | 43 | 1011.5 |
| 20260508154518 | 13 | 305 | 3.2 | 9.7 | 0.00 | 0.00 | 0.00 | 43 | 1011.5 |
| 20260508154008 | 13 | 98 | 1.6 | 9.7 | 0.00 | 0.00 | 0.00 | 45 | 1011.4 |
| 20260508153512 | 13 | 121 | 1.6 | 8.0 | 0.00 | 0.00 | 0.00 | 43 | 1011.5 |
| 20260508153033 | 13 | 162 | 4.8 | 8.0 | 0.00 | 0.00 | 0.00 | 43 | 1011.5 |
| 20260508152508 | 13 | 43 | 1.6 | 4.8 | 0.00 | 0.00 | 0.00 | 45 | 1011.6 |
| 20260508152018 | 13 | 262 | 0.0 | 4.8 | 0.00 | 0.00 | 0.00 | 44 | 1011.6 |
| 20260508151507 | 13 | 134 | 0.0 | 4.8 | 0.00 | 0.00 | 0.00 | 46 | 1011.6 |
| 20260508151006 | 13 | 61 | 1.6 | 4.8 | 0.00 | 0.00 | 0.00 | 47 | 1011.7 |
| 20260508150509 | 12 | 239 | 1.6 | 4.8 | 0.00 | 0.00 | 0.00 | 45 | 1011.7 |
| 20260508150015 | 12 | 76 | 1.6 | 4.8 | 0.00 | 0.00 | 0.00 | 48 | 1011.8 |
| 20260508145506 | 12 | 35 | 0.0 | 6.4 | 0.00 | 0.00 | 0.00 | 48 | 1011.8 |
| 20260508145011 | 12 | 54 | 3.2 | 8.0 | 0.00 | 0.00 | 0.00 | 48 | 1011.9 |
| 20260508144515 | 12 | 68 | 1.6 | 9.7 | 0.00 | 0.00 | 0.00 | 53 | 1011.9 |
| 20260508144007 | 12 | 80 | 1.6 | 9.7 | 0.00 | 0.00 | 0.00 | 51 | 1011.9 |
| 20260508143511 | 12 | 84 | 3.2 | 9.7 | 0.00 | 0.00 | 0.00 | 53 | 1012.0 |
| 20260508143021 | 12 | 53 | 1.6 | 6.4 | 0.00 | 0.00 | 0.00 | 51 | 1012.0 |
| 20260508142512 | 12 | 36 | 3.2 | 6.4 | 0.00 | 0.00 | 0.00 | 51 | 1012.1 |
| 20260508142011 | 12 | 22 | 1.6 | 4.8 | 0.00 | 0.00 | 0.00 | 53 | 1012.1 |
| 20260508141525 | 12 | 80 | 0.0 | 4.8 | 0.00 | 0.00 | 0.00 | 55 | 1012.1 |
| 20260508141015 | 12 | 97 | 3.2 | 4.8 | 0.00 | 0.00 | 0.00 | 55 | 1012.1 |
| 20260508140505 | 12 | 84 | 1.6 | 3.2 | 0.00 | 0.00 | 0.00 | 57 | 1012.2 |
| 20260508140008 | 11 | 142 | 0.0 | 3.2 | 0.00 | 0.00 | 0.00 | 57 | 1012.2 |
| 20260508135507 | 11 | 35 | 1.6 | 4.8 | 0.00 | 0.00 | 0.00 | 57 | 1012.3 |
| 20260508135008 | 11 | 53 | 0.0 | 4.8 | 0.00 | 0.00 | 0.00 | 60 | 1012.3 |
| 20260508134514 | 11 | 85 | 1.6 | 4.8 | 0.00 | 0.00 | 0.00 | 61 | 1012.3 |
| 20260508134007 | 11 | 323 | 1.6 | 4.8 | 0.00 | 0.00 | 0.00 | 62 | 1012.3 |
| 20260508133507 | 10 | 315 | 1.6 | 4.8 | 0.00 | 0.00 | 0.00 | 62 | 1012.3 |
| 20260508133021 | 10 | 24 | 3.2 | 3.2 | 0.00 | 0.00 | 0.00 | 62 | 1012.4 |
| 20260508132506 | 10 | 59 | 0.0 | 4.8 | 0.00 | 0.00 | 0.00 | 63 | 1012.4 |
| 20260508132017 | 10 | 48 | 0.0 | 4.8 | 0.00 | 0.00 | 0.00 | 65 | 1012.3 |
| 20260508131525 | 10 | 34 | 3.2 | 4.8 | 0.00 | 0.00 | 0.00 | 64 | 1012.3 |
| 20260508131007 | 10 | 138 | 0.0 | 3.2 | 0.00 | 0.00 | 0.00 | 66 | 1012.5 |
| 20260508130510 | 10 | 217 | 0.0 | 3.2 | 0.00 | 0.00 | 0.00 | 67 | 1012.5 |
| 20260508130029 | 9 | 351 | 1.6 | 3.2 | 0.00 | 0.00 | 0.00 | 67 | 1012.4 |
| 20260508125504 | 9 | 236 | 1.6 | 3.2 | 0.00 | 0.00 | 0.00 | 68 | 1012.4 |
| 20260508125006 | 8 | 223 | 0.0 | 3.2 | 0.00 | 0.00 | 0.00 | 69 | 1012.3 |
| 20260508124514 | 8 | 192 | 0.0 | 3.2 | 0.00 | 0.00 | 0.00 | 70 | 1012.2 |
| 20260508124006 | 8 | 245 | 1.6 | 3.2 | 0.00 | 0.00 | 0.00 | 70 | 1012.2 |
| 20260508123508 | 8 | 214 | 0.0 | 3.2 | 0.00 | 0.00 | 0.00 | 71 | 1012.2 |
| 20260508123020 | 8 | 199 | 0.0 | 3.2 | 0.00 | 0.00 | 0.00 | 71 | 1012.3 |
| 20260508122507 | 8 | 203 | 0.0 | 3.2 | 0.00 | 0.00 | 0.00 | 73 | 1012.3 |
| 20260508122011 | 8 | 153 | 0.0 | 3.2 | 0.00 | 0.00 | 0.00 | 74 | 1012.3 |
| 20260508121527 | 7 | 64 | 0.0 | 3.2 | 0.00 | 0.00 | 0.00 | 75 | 1012.2 |
| 20260508121008 | 7 | 42 | 0.0 | 3.2 | 0.00 | 0.00 | 0.00 | 75 | 1012.2 |
| 20260508120507 | 7 | 42 | 0.0 | 3.2 | 0.00 | 0.00 | 0.00 | 77 | 1012.2 |
| 20260508120025 | 7 | 42 | 0.0 | 3.2 | 0.00 | 0.00 | 0.00 | 80 | 1012.1 |
| 20260508115509 | 6 | 13 | 0.0 | 0.0 | 0.00 | 0.00 | 0.00 | 83 | 1012.0 |
| 20260508115010 | 5 | 13 | 0.0 | 0.0 | 0.00 | 0.00 | 0.00 | 87 | 1012.0 |
| 20260508114511 | 5 | 13 | 0.0 | 0.0 | 0.00 | 0.00 | 0.00 | 91 | 1011.9 |
| 20260508114003 | 4 | 13 | 0.0 | 0.0 | 0.00 | 0.00 | 0.00 | 91 | 1011.8 |
| 20260508113508 | 4 | 13 | 0.0 | 0.0 | 0.00 | 0.00 | 0.00 | 91 | 1011.7 |
| 20260508113014 | 3 | 13 | 0.0 | 0.0 | 0.00 | 0.00 | 0.00 | 91 | 1011.6 |
| 20260508112509 | 3 | 13 | 0.0 | 0.0 | 0.00 | 0.00 | 0.00 | 91 | 1011.6 |
| 20260508112011 | 3 | 13 | 0.0 | 0.0 | 0.00 | 0.00 | 0.00 | 91 | 1011.6 |
| 20260508111522 | 3 | 13 | 0.0 | 0.0 | 0.00 | 0.00 | 0.00 | 91 | 1011.6 |
| 20260508111007 | 3 | 13 | 0.0 | 0.0 | 0.00 | 0.00 | 0.00 | 91 | 1011.5 |
| 20260508110512 | 3 | 13 | 0.0 | 3.2 | 0.00 | 0.00 | 0.00 | 91 | 1011.5 |
| 20260508110025 | 3 | 13 | 0.0 | 3.2 | 0.00 | 0.00 | 0.00 | 91 | 1011.5 |
| 20260508105508 | 3 | 25 | 0.0 | 0.0 | 0.00 | 0.00 | 0.00 | 91 | 1011.5 |
| 20260508105015 | 3 | 25 | 0.0 | 0.0 | 0.00 | 0.00 | 0.00 | 90 | 1011.4 |
| 20260508104526 | 3 | 25 | 0.0 | 3.2 | 0.00 | 0.00 | 0.00 | 90 | 1011.4 |
| 20260508104008 | 3 | 25 | 0.0 | 3.2 | 0.00 | 0.00 | 0.00 | 90 | 1011.3 |
| 20260508103506 | 3 | 25 | 0.0 | 0.0 | 0.00 | 0.00 | 0.00 | 90 | 1011.2 |
| 20260508103013 | 3 | 25 | 0.0 | 0.0 | 0.00 | 0.00 | 0.00 | 90 | 1011.2 |
| 20260508102505 | 3 | 25 | 0.0 | 0.0 | 0.00 | 0.00 | 0.00 | 90 | 1011.2 |
| 20260508102010 | 3 | 25 | 0.0 | 0.0 | 0.00 | 0.00 | 0.00 | 90 | 1011.2 |
| 20260508101524 | 3 | 25 | 0.0 | 0.0 | 0.00 | 0.00 | 0.00 | 90 | 1011.3 |
| 20260508101010 | 3 | 25 | 0.0 | 0.0 | 0.00 | 0.00 | 0.00 | 90 | 1011.2 |
| 20260508100511 | 3 | 25 | 0.0 | 0.0 | 0.00 | 0.00 | 0.00 | 90 | 1011.2 |
| 20260508100024 | 3 | 25 | 0.0 | 1.6 | 0.00 | 0.00 | 0.00 | 89 | 1011.2 |
| 20260508095507 | 3 | 25 | 0.0 | 3.2 | 0.00 | 0.00 | 0.00 | 89 | 1011.2 |
| 20260508095006 | 3 | 25 | 0.0 | 3.2 | 0.00 | 0.00 | 0.00 | 89 | 1011.1 |
| 20260508094507 | 3 | 25 | 0.0 | 3.2 | 0.00 | 0.00 | 0.00 | 89 | 1011.2 |
| 20260508094005 | 3 | 25 | 0.0 | 3.2 | 0.00 | 0.00 | 0.00 | 89 | 1011.2 |
| 20260508093507 | 4 | 25 | 0.0 | 0.0 | 0.00 | 0.00 | 0.00 | 89 | 1011.3 |
| 20260508093012 | 4 | 25 | 0.0 | 0.0 | 0.00 | 0.00 | 0.00 | 89 | 1011.2 |
| 20260508092507 | 4 | 25 | 0.0 | 0.0 | 0.00 | 0.00 | 0.00 | 89 | 1011.3 |
| 20260508092006 | 4 | 25 | 0.0 | 0.0 | 0.00 | 0.00 | 0.00 | 89 | 1011.3 |
| 20260508091528 | 4 | 25 | 0.0 | 0.0 | 0.00 | 0.00 | 0.00 | 89 | 1011.3 |
| 20260508091009 | 4 | 25 | 0.0 | 0.0 | 0.00 | 0.00 | 0.00 | 88 | 1011.3 |
| 20260508090507 | 4 | 25 | 0.0 | 0.0 | 0.00 | 0.00 | 0.00 | 88 | 1011.3 |
| 20260508090022 | 4 | 25 | 0.0 | 0.0 | 0.00 | 0.00 | 0.00 | 88 | 1011.3 |
| 20260508085509 | 4 | 25 | 0.0 | 0.0 | 0.00 | 0.00 | 0.00 | 88 | 1011.3 |
| 20260508085015 | 4 | 25 | 0.0 | 0.0 | 0.00 | 0.00 | 0.00 | 88 | 1011.2 |
| 20260508084527 | 5 | 25 | 0.0 | 0.0 | 0.00 | 0.00 | 0.00 | 88 | 1011.2 |
| 20260508084005 | 5 | 25 | 0.0 | 0.0 | 0.00 | 0.00 | 0.00 | 88 | 1011.3 |
| 20260508083504 | 5 | 25 | 0.0 | 0.0 | 0.00 | 0.00 | 0.00 | 87 | 1011.4 |
| 20260508083018 | 5 | 25 | 0.0 | 0.0 | 0.00 | 0.00 | 0.00 | 87 | 1011.4 |
| 20260508082507 | 5 | 25 | 0.0 | 0.0 | 0.00 | 0.00 | 0.00 | 87 | 1011.4 |
| 20260508082007 | 5 | 25 | 0.0 | 0.0 | 0.00 | 0.00 | 0.00 | 86 | 1011.5 |
| 20260508081516 | 5 | 25 | 0.0 | 0.0 | 0.00 | 0.00 | 0.00 | 86 | 1011.4 |
| 20260508081005 | 5 | 25 | 0.0 | 0.0 | 0.00 | 0.00 | 0.00 | 86 | 1011.4 |
| 20260508080509 | 5 | 25 | 0.0 | 0.0 | 0.00 | 0.00 | 0.00 | 86 | 1011.4 |
| 20260508080018 | 5 | 25 | 0.0 | 3.2 | 0.00 | 0.00 | 0.00 | 86 | 1011.4 |
| 20260508075508 | 5 | 25 | 0.0 | 3.2 | 0.00 | 0.00 | 0.00 | 86 | 1011.4 |
| 20260508075016 | 5 | 360 | 0.0 | 3.2 | 0.00 | 0.00 | 0.00 | 85 | 1011.5 |
| 20260508074522 | 5 | 352 | 0.0 | 3.2 | 0.00 | 0.00 | 0.00 | 86 | 1011.4 |
| 20260508074009 | 5 | 341 | 0.0 | 0.0 | 0.00 | 0.00 | 0.00 | 86 | 1011.4 |
| 20260508073514 | 5 | 341 | 0.0 | 0.0 | 0.00 | 0.00 | 0.00 | 86 | 1011.5 |
| 20260508073009 | 5 | 341 | 0.0 | 0.0 | 0.00 | 0.00 | 0.00 | 86 | 1011.5 |
| 20260508072502 | 5 | 341 | 0.0 | 0.0 | 0.00 | 0.00 | 0.00 | 86 | 1011.7 |
| 20260508072006 | 5 | 341 | 0.0 | 0.0 | 0.00 | 0.00 | 0.00 | 86 | 1011.6 |
| 20260508071512 | 5 | 341 | 0.0 | 0.0 | 0.00 | 0.00 | 0.00 | 85 | 1011.5 |
| 20260508071005 | 5 | 341 | 0.0 | 0.0 | 0.00 | 0.00 | 0.00 | 86 | 1011.5 |
| 20260508070507 | 5 | 341 | 0.0 | 0.0 | 0.00 | 0.00 | 0.00 | 85 | 1011.5 |
| 20260508070019 | 5 | 341 | 0.0 | 0.0 | 0.00 | 0.00 | 0.00 | 85 | 1011.5 |
| 20260508065513 | 5 | 341 | 0.0 | 0.0 | 0.00 | 0.00 | 0.00 | 85 | 1011.5 |
| 20260508065006 | 5 | 341 | 0.0 | 0.0 | 0.00 | 0.00 | 0.00 | 85 | 1011.5 |
| 20260508064531 | 5 | 341 | 0.0 | 0.0 | 0.00 | 0.00 | 0.00 | 84 | 1011.6 |
| 20260508064008 | 5 | 341 | 0.0 | 0.0 | 0.00 | 0.00 | 0.00 | 84 | 1011.4 |
| 20260508063516 | 5 | 341 | 0.0 | 0.0 | 0.00 | 0.00 | 0.00 | 84 | 1011.5 |
| 20260508063031 | 5 | 341 | 0.0 | 0.0 | 0.00 | 0.00 | 0.00 | 84 | 1011.4 |
| 20260508062516 | 5 | 341 | 0.0 | 0.0 | 0.00 | 0.00 | 0.00 | 84 | 1011.5 |
| 20260508062012 | 5 | 341 | 0.0 | 3.2 | 0.00 | 0.00 | 0.00 | 83 | 1011.5 |
| 20260508061509 | 5 | 341 | 0.0 | 1.6 | 0.00 | 0.00 | 0.00 | 83 | 1011.6 |
| 20260508061004 | 5 | 341 | 0.0 | 0.0 | 0.00 | 0.00 | 0.00 | 83 | 1011.6 |
| 20260508060505 | 5 | 341 | 0.0 | 0.0 | 0.00 | 0.00 | 0.00 | 83 | 1011.7 |
| 20260508060014 | 5 | 341 | 0.0 | 0.0 | 0.00 | 0.00 | 0.00 | 82 | 1011.7 |
| 20260508055505 | 5 | 341 | 0.0 | 0.0 | 0.00 | 0.00 | 0.00 | 82 | 1011.6 |
| 20260508055005 | 5 | 341 | 0.0 | 0.0 | 0.00 | 0.00 | 0.00 | 82 | 1011.7 |
| 20260508054519 | 5 | 341 | 0.0 | 0.0 | 0.00 | 0.00 | 0.00 | 81 | 1011.7 |
| 20260508054006 | 5 | 341 | 0.0 | 0.0 | 0.00 | 0.00 | 0.00 | 81 | 1011.8 |
| 20260508053513 | 6 | 341 | 0.0 | 3.2 | 0.00 | 0.00 | 0.00 | 80 | 1011.9 |
| 20260508053031 | 6 | 341 | 0.0 | 3.2 | 0.00 | 0.00 | 0.00 | 79 | 1011.7 |
| 20260508052510 | 6 | 341 | 0.0 | 3.2 | 0.00 | 0.00 | 0.00 | 78 | 1011.8 |
| 20260508052020 | 6 | 341 | 0.0 | 0.0 | 0.00 | 0.00 | 0.00 | 77 | 1011.9 |
| 20260508051537 | 6 | 341 | 0.0 | 3.2 | 0.00 | 0.00 | 0.00 | 76 | 1011.8 |
| 20260508051009 | 6 | 341 | 0.0 | 3.2 | 0.00 | 0.00 | 0.00 | 76 | 1011.8 |
| 20260508050507 | 7 | 341 | 0.0 | 0.0 | 0.00 | 0.00 | 0.00 | 75 | 1011.7 |
| 20260508050014 | 7 | 341 | 0.0 | 0.0 | 0.00 | 0.00 | 0.00 | 74 | 1011.8 |
| 20260508045506 | 7 | 341 | 0.0 | 0.0 | 0.00 | 0.00 | 0.00 | 73 | 1011.9 |
| 20260508045004 | 7 | 341 | 0.0 | 3.2 | 0.00 | 0.00 | 0.00 | 72 | 1012.0 |
| 20260508044519 | 7 | 341 | 0.0 | 3.2 | 0.00 | 0.00 | 0.00 | 71 | 1012.0 |
| 20260508044006 | 8 | 16 | 0.0 | 4.8 | 0.00 | 0.00 | 0.00 | 68 | 1011.8 |
| 20260508043509 | 8 | 21 | 1.6 | 4.8 | 0.00 | 0.00 | 0.00 | 67 | 1011.8 |
| 20260508043021 | 8 | 340 | 0.0 | 8.0 | 0.00 | 0.00 | 0.00 | 67 | 1011.8 |
| 20260508042510 | 8 | 29 | 1.6 | 8.0 | 0.00 | 0.00 | 0.00 | 63 | 1011.9 |
| 20260508042011 | 8 | 233 | 1.6 | 3.2 | 0.00 | 0.00 | 0.00 | 61 | 1012.0 |
| 20260508041526 | 8 | 309 | 0.0 | 3.2 | 0.00 | 0.00 | 0.00 | 61 | 1011.8 |
| 20260508041009 | 8 | 195 | 0.0 | 3.2 | 0.00 | 0.00 | 0.00 | 60 | 1011.6 |
| 20260508040512 | 8 | 183 | 0.0 | 0.0 | 0.00 | 0.00 | 0.00 | 60 | 1011.4 |
| 20260508040028 | 8 | 183 | 0.0 | 0.0 | 0.00 | 0.00 | 0.00 | 60 | 1011.5 |
| 20260508035503 | 9 | 183 | 0.0 | 0.0 | 0.00 | 0.00 | 0.00 | 59 | 1011.5 |
| 20260508035007 | 9 | 183 | 0.0 | 0.0 | 0.00 | 0.00 | 0.00 | 60 | 1011.4 |
| 20260508034521 | 9 | 183 | 0.0 | 0.0 | 0.00 | 0.00 | 0.00 | 57 | 1011.4 |
| 20260508034008 | 9 | 183 | 0.0 | 0.0 | 0.00 | 0.00 | 0.00 | 56 | 1011.5 |
| 20260508033506 | 10 | 183 | 0.0 | 0.0 | 0.00 | 0.00 | 0.00 | 56 | 1011.6 |
| 20260508033024 | 10 | 183 | 0.0 | 3.2 | 0.00 | 0.00 | 0.00 | 55 | 1011.5 |
| 20260508032509 | 10 | 183 | 0.0 | 3.2 | 0.00 | 0.00 | 0.00 | 55 | 1011.5 |
| 20260508032009 | 10 | 183 | 0.0 | 1.6 | 0.00 | 0.00 | 0.00 | 55 | 1011.6 |
| 20260508031523 | 10 | 183 | 0.0 | 1.6 | 0.00 | 0.00 | 0.00 | 56 | 1011.9 |
| 20260508031010 | 10 | 183 | 0.0 | 3.2 | 0.00 | 0.00 | 0.00 | 54 | 1011.9 |
| 20260508030509 | 10 | 183 | 0.0 | 3.2 | 0.00 | 0.00 | 0.00 | 54 | 1012.0 |
| 20260508030027 | 10 | 183 | 0.0 | 3.2 | 0.00 | 0.00 | 0.00 | 55 | 1012.0 |
| 20260508025510 | 10 | 123 | 0.0 | 3.2 | 0.00 | 0.00 | 0.00 | 56 | 1012.1 |
| 20260508025012 | 10 | 128 | 0.0 | 3.2 | 0.00 | 0.00 | 0.00 | 56 | 1012.1 |
| 20260508024519 | 9 | 155 | 0.0 | 3.2 | 0.00 | 0.00 | 0.00 | 56 | 1012.1 |
| 20260508024003 | 9 | 145 | 0.0 | 4.8 | 0.00 | 0.00 | 0.00 | 55 | 1012.1 |
| 20260508023507 | 9 | 145 | 0.0 | 4.8 | 0.00 | 0.00 | 0.00 | 55 | 1012.0 |
| 20260508023016 | 9 | 304 | 0.0 | 0.0 | 0.00 | 0.00 | 0.00 | 55 | 1011.9 |
| 20260508022510 | 9 | 304 | 0.0 | 0.0 | 0.00 | 0.00 | 0.00 | 54 | 1011.8 |
| 20260508022012 | 9 | 304 | 0.0 | 0.0 | 0.00 | 0.00 | 0.00 | 55 | 1011.8 |
| 20260508021530 | 9 | 304 | 0.0 | 3.2 | 0.00 | 0.00 | 0.00 | 54 | 1011.8 |
| 20260508021014 | 9 | 304 | 0.0 | 3.2 | 0.00 | 0.00 | 0.00 | 52 | 1011.9 |
| 20260508020511 | 10 | 313 | 0.0 | 3.2 | 0.00 | 0.00 | 0.00 | 52 | 1011.9 |
| 20260508020023 | 10 | 313 | 0.0 | 0.0 | 0.00 | 0.00 | 0.00 | 52 | 1011.8 |
| 20260508015507 | 10 | 313 | 0.0 | 0.0 | 0.00 | 0.00 | 0.00 | 52 | 1011.8 |
| 20260508015009 | 10 | 313 | 0.0 | 0.0 | 0.00 | 0.00 | 0.00 | 50 | 1011.7 |
| 20260508014527 | 10 | 313 | 0.0 | 0.0 | 0.00 | 0.00 | 0.00 | 50 | 1011.7 |
| 20260508014010 | 10 | 313 | 0.0 | 1.6 | 0.00 | 0.00 | 0.00 | 49 | 1011.7 |
| 20260508013506 | 10 | 313 | 0.0 | 3.2 | 0.00 | 0.00 | 0.00 | 49 | 1011.5 |
| 20260508013015 | 10 | 314 | 0.0 | 3.2 | 0.00 | 0.00 | 0.00 | 47 | 1011.5 |
| 20260508012508 | 10 | 314 | 0.0 | 3.2 | 0.00 | 0.00 | 0.00 | 46 | 1011.4 |
| 20260508012006 | 10 | 323 | 0.0 | 1.6 | 0.00 | 0.00 | 0.00 | 47 | 1011.4 |
| 20260508011527 | 10 | 323 | 0.0 | 3.2 | 0.00 | 0.00 | 0.00 | 45 | 1011.3 |
| 20260508011006 | 10 | 323 | 0.0 | 3.2 | 0.00 | 0.00 | 0.00 | 45 | 1011.3 |
| 20260508010506 | 10 | 323 | 0.0 | 3.2 | 0.00 | 0.00 | 0.00 | 46 | 1011.3 |
| 20260508010037 | 11 | 286 | 1.6 | 3.2 | 0.00 | 0.00 | 0.00 | 44 | 1011.3 |
| 20260508005508 | 11 | 48 | 0.0 | 6.4 | 0.00 | 0.00 | 0.00 | 45 | 1011.3 |
| 20260508005011 | 11 | 49 | 1.6 | 6.4 | 0.00 | 0.00 | 0.00 | 45 | 1011.4 |
| 20260508004527 | 10 | 19 | 1.6 | 4.8 | 0.00 | 0.00 | 0.00 | 46 | 1011.4 |
| 20260508004008 | 10 | 59 | 0.0 | 3.2 | 0.00 | 0.00 | 0.00 | 49 | 1011.3 |
| 20260508003514 | 10 | 34 | 0.0 | 3.2 | 0.00 | 0.00 | 0.00 | 49 | 1011.3 |
| 20260508003027 | 11 | 34 | 0.0 | 0.0 | 0.00 | 0.00 | 0.00 | 47 | 1011.1 |
| 20260508002509 | 11 | 34 | 0.0 | 0.0 | 0.00 | 0.00 | 0.00 | 44 | 1011.0 |
| 20260508002007 | 11 | 34 | 0.0 | 3.2 | 0.00 | 0.00 | 0.00 | 46 | 1011.0 |
| 20260508001515 | 11 | 34 | 0.0 | 3.2 | 0.00 | 0.00 | 0.00 | 46 | 1011.0 |
| 20260508001006 | 11 | 34 | 0.0 | 3.2 | 0.00 | 0.00 | 0.00 | 45 | 1011.0 |
| 20260508000508 | 11 | 34 | 0.0 | 3.2 | 0.00 | 0.00 | 0.00 | 42 | 1011.0 |
| 20260508000024 | 11 | 161 | 0.0 | 4.8 | 0.00 | 0.00 | 0.00 | 44 | 1011.0 |
| 20260507235511 | 11 | 161 | 0.0 | 4.8 | 0.00 | 0.00 | 0.00 | 42 | 1010.9 |
| 20260507235013 | 11 | 240 | 0.0 | 3.2 | 0.00 | 0.00 | 0.00 | 43 | 1010.9 |
| 20260507234525 | 12 | 240 | 0.0 | 3.2 | 0.00 | 0.00 | 0.00 | 42 | 1011.0 |
| 20260507234012 | 12 | 46 | 0.0 | 3.2 | 0.00 | 0.00 | 0.00 | 40 | 1011.0 |
| 20260507233510 | 12 | 180 | 0.0 | 3.2 | 0.00 | 0.00 | 0.00 | 41 | 1011.0 |
| 20260507233035 | 12 | 257 | 0.0 | 4.8 | 0.00 | 0.00 | 0.00 | 39 | 1011.0 |
| 20260507232508 | 12 | 211 | 0.0 | 6.4 | 0.00 | 0.00 | 0.00 | 39 | 1011.0 |
| 20260507232018 | 12 | 286 | 1.6 | 6.4 | 0.00 | 0.00 | 0.00 | 40 | 1011.0 |
| 20260507231517 | 12 | 210 | 0.0 | 12.9 | 0.00 | 0.00 | 0.00 | 37 | 1011.0 |
| 20260507231007 | 12 | 65 | 3.2 | 12.9 | 0.00 | 0.00 | 0.00 | 37 | 1011.0 |
| 20260507230507 | 12 | 360 | 3.2 | 8.0 | 0.00 | 0.00 | 0.00 | 37 | 1011.1 |
| 20260507230033 | 13 | 313 | 1.6 | 8.0 | 0.00 | 0.00 | 0.00 | 36 | 1011.1 |
| 20260507225508 | 13 | 331 | 3.2 | 9.7 | 0.00 | 0.00 | 0.00 | 36 | 1011.1 |
| 20260507225007 | 13 | 244 | 0.0 | 12.9 | 0.00 | 0.00 | 0.00 | 36 | 1011.0 |
| 20260507224531 | 13 | 209 | 1.6 | 12.9 | 0.00 | 0.00 | 0.00 | 39 | 1011.1 |
| 20260507224007 | 13 | 248 | 4.8 | 12.9 | 0.00 | 0.00 | 0.00 | 35 | 1011.1 |
| 20260507223507 | 13 | 19 | 1.6 | 3.2 | 0.00 | 0.00 | 0.00 | 36 | 1011.2 |
| 20260507223050 | 12 | 254 | 0.0 | 11.3 | 0.00 | 0.00 | 0.00 | 38 | 1011.2 |
| 20260507222511 | 12 | 349 | 1.6 | 11.3 | 0.00 | 0.00 | 0.00 | 37 | 1011.3 |
| 20260507222012 | 12 | 227 | 0.0 | 9.7 | 0.00 | 0.00 | 0.00 | 38 | 1011.3 |
| 20260507221528 | 12 | 227 | 1.6 | 11.3 | 0.00 | 0.00 | 0.00 | 38 | 1011.3 |
| 20260507221008 | 12 | 21 | 4.8 | 11.3 | 0.00 | 0.00 | 0.00 | 36 | 1011.3 |
| 20260507220507 | 12 | 342 | 1.6 | 8.0 | 0.00 | 0.00 | 0.00 | 36 | 1011.4 |
| 20260507220018 | 13 | 279 | 3.2 | 11.3 | 0.00 | 0.00 | 0.00 | 36 | 1011.4 |
| 20260507215512 | 13 | 229 | 3.2 | 11.3 | 0.00 | 0.00 | 0.00 | 35 | 1011.2 |